Location: Rounton
(54.4000°N, 1.3500°W)
Time: 11:28:49
(UTC+00:00)

Transit 2A - Visible Passes

Search period start: 22 February 2024 00:00
Search period end: 03 March 2024 00:00
Orbit: 600 x 953 km, 66.7° (Epoch: 22 February)

Date Brightness Start Highest point End Pass type
(mag) Time Alt. Az. Time Alt. Az. Time Alt. Az.
22 Feb 7.2 03:27:15 35° ENE 03:27:15 35° ENE 03:31:01 10° ESE visible
22 Feb 5.9 05:07:42 33° WNW 05:09:38 55° SW 05:14:39 10° SSE visible
23 Feb 8.1 02:53:39 20° ENE 02:53:39 20° ENE 02:55:36 10° E visible
23 Feb 5.6 04:34:07 66° WNW 04:34:39 75° SW 04:39:48 10° SSE visible
23 Feb 7.5 06:14:34 11° WNW 06:17:07 15° WSW 06:20:03 10° SW visible
24 Feb 6.2 04:00:41 56° SE 04:00:41 56° SE 04:04:48 10° SE visible
24 Feb 7.0 05:41:09 20° W 05:42:19 22° WSW 05:46:11 10° SSW visible
24 Feb 7.8 20:23:59 10° SSW 20:24:37 14° SSW 20:24:37 14° SSW visible
25 Feb 7.6 03:27:25 25° ESE 03:27:25 25° ESE 03:29:39 10° SE visible
25 Feb 6.7 05:07:55 29° SW 05:07:55 29° SW 05:11:56 10° S visible
25 Feb 6.4 19:49:13 10° SSW 19:51:57 33° SSE 19:51:57 33° SSE visible
25 Feb 8.4 21:32:23 10° WSW 21:32:28 10° WSW 21:32:28 10° WSW visible
26 Feb 8.6 02:54:22 10° ESE 02:54:22 10° ESE 02:54:25 10° ESE visible
26 Feb 7.2 04:34:52 26° S 04:34:52 26° S 04:37:25 10° S visible
26 Feb 6.2 19:14:37 10° S 19:18:27 31° ESE 19:19:10 29° E visible
26 Feb 7.1 20:57:06 10° WSW 20:59:40 32° W 20:59:40 32° W visible
27 Feb 8.1 04:02:01 14° SSE 04:02:01 14° SSE 04:02:43 10° SSE visible
27 Feb 6.7 18:40:16 10° SSE 18:43:37 22° ESE 18:46:13 14° ENE visible
27 Feb 5.7 20:21:56 10° SW 20:26:15 68° NW 20:26:42 62° N visible
27 Feb 8.5 22:06:36 10° WNW 22:07:12 13° WNW 22:07:12 13° WNW visible
28 Feb 5.4 19:46:52 10° SW 19:51:13 88° SE 19:53:34 27° NE visible
28 Feb 7.6 21:31:08 10° W 21:34:03 25° NW 21:34:03 25° NW visible
29 Feb 5.5 19:11:57 10° SSW 19:16:13 63° SE 19:20:15 12° NE visible
29 Feb 7.2 20:55:42 10° W 20:59:37 32° NNW 21:00:43 28° N visible
29 Feb 8.7 22:40:56 10° NW 22:41:11 11° NW 22:41:11 11° NW visible
01 Mar 5.9 18:37:10 10° SSW 18:41:17 44° ESE 18:45:30 10° NE visible
01 Mar 6.8 20:20:20 10° WSW 20:24:26 39° NW 20:27:14 19° NNE visible
01 Mar 8.2 22:05:30 10° WNW 22:07:42 18° NNW 22:07:42 18° NNW visible
02 Mar 6.3 19:45:03 10° WSW 19:49:17 51° NW 19:53:37 10° NE visible
02 Mar 7.8 21:30:01 10° WNW 21:33:22 21° NNW 21:34:04 20° N visible
